India Forums Logo

Punar Vivah

India Forums > Forum Index > Punar Vivah
Punar Vivah is based on the concept of remarriage in which couple also has kids with their previous marriage. This show represents a love story with a contrast.
...
<< | 335 | 336 | 337 | 338 | 339 | 340 | 341 | 342 | 343 | 344 | 345 | 346 | 347 | 348 | 349 | 350 | 351 | 352 | 353 | ... >>
TIDTopic SubjectStart DateLast Entry
3452467How did u feel...2/24/2013 4:37:44 AM2/25/2013 4:26:12 AM
3452468SP's relation with radha was mistake or not?2/24/2013 4:38:01 AM2/25/2013 12:15:56 AM
3452470answer me?2/24/2013 4:40:21 AM2/24/2013 5:00:59 AM
3452471Caption !!2/24/2013 4:42:09 AM2/24/2013 5:19:17 PM
3452472Cuteness !!2/24/2013 4:42:41 AM2/24/2013 6:01:43 AM
3452473will arya remain...2/24/2013 4:43:33 AM2/25/2013 4:09:44 AM
3452474pls vote for punar vivah serial guys2/24/2013 4:44:30 AM2/24/2013 6:57:02 AM
3452475One of the Best Promos??2/24/2013 4:44:42 AM2/24/2013 11:49:09 PM
3452477Which scene??2/24/2013 4:49:56 AM2/24/2013 5:58:15 AM
3452478rate the hotness ;)2/24/2013 4:50:10 AM2/25/2013 4:10:13 AM
3452480White & Serene..2/24/2013 4:52:56 AM2/25/2013 1:14:26 AM
3452482Hot & Wet !2/24/2013 4:54:01 AM2/24/2013 6:17:18 AM
3452484That smile which steals millions of Heart !! ^_^2/24/2013 4:57:05 AM2/25/2013 12:22:24 AM
3452486Want to see both AArya in white costumes...2/24/2013 4:57:40 AM2/24/2013 11:03:32 AM
3452487Reminder post !!!!!2/24/2013 4:57:55 AM2/25/2013 4:08:24 AM
3452493If u r not scared of DYING, peep in !!2/24/2013 5:06:26 AM2/24/2013 9:01:55 AM
3452499Aarya & Gurika Pics..2/24/2013 5:11:52 AM2/24/2013 11:19:33 PM
3452503Love them.. SIMPLY !!2/24/2013 5:15:46 AM2/25/2013 12:21:08 AM
3452505WHO IS SHE?? :O2/24/2013 5:16:38 AM2/25/2013 12:07:58 AM
3452507Just for FUN !!2/24/2013 5:17:18 AM2/25/2013 12:26:28 AM
3452509Walking the RAMP !!2/24/2013 5:20:19 AM2/25/2013 12:35:13 AM
3452511Kratika & Leena..2/24/2013 5:21:03 AM2/24/2013 10:01:52 AM
3452516Beautiful YOU.. Today & Tomorrow !!2/24/2013 5:25:28 AM2/25/2013 3:16:35 AM
3452519HOT HOLI !!2/24/2013 5:28:10 AM2/24/2013 6:41:50 AM
3452577Step son drama in Yash and Aarti's family2/24/2013 6:45:50 AM2/25/2013 12:37:10 AM
3452582hug competition2/24/2013 6:50:24 AM2/25/2013 1:00:17 PM
3452590ur favorite sport to watch and play2/24/2013 6:57:56 AM2/24/2013 10:22:54 AM
3452591ur favorite bollywood celebrity couple2/24/2013 6:59:08 AM2/24/2013 11:15:44 AM
3452592Million watts Smile of Guru..pic2/24/2013 6:59:16 AM2/24/2013 11:49:50 PM
3452614I hv done it2/24/2013 7:23:09 AM2/24/2013 9:23:04 AM
3452644Help! Have a question about Kratika...2/24/2013 7:42:49 AM2/25/2013 12:03:47 AM
3452646120 total comments needed..hurry up.less time lef2/24/2013 7:43:23 AM2/24/2013 10:50:43 AM
3452650Let's play anthakshri of celebrity names2/24/2013 7:47:47 AM2/26/2013 12:01:05 AM
3452660Edited Pics #3 (Guru's Pics)2/24/2013 8:02:04 AM2/25/2013 4:09:00 AM
3452696All currently online PVians2/24/2013 8:36:25 AM2/24/2013 9:36:38 AM
3452698Deewane Pvians Ka Gapp Shapp Ka Adda~52/24/2013 8:39:38 AM3/3/2013 7:19:36 AM
3452732:: AarYan Express #20 : Kyun Main Jagoon ::2/24/2013 9:15:21 AM3/2/2013 3:16:36 PM
34527424 more for GC (^_^)!2/24/2013 9:22:24 AM2/24/2013 10:19:25 AM
3452744Articles Max Out..!2/24/2013 9:24:41 AM2/24/2013 10:23:49 AM
3452763GurIka In A Remake?2/24/2013 9:48:52 AM2/24/2013 11:29:20 PM
3452784Ho many of you?2/24/2013 10:06:47 AM2/24/2013 10:50:20 AM
3452799Express ur love...2/24/2013 10:13:16 AM2/25/2013 12:28:50 AM
3452801rate ur love...2/24/2013 10:14:22 AM2/24/2013 11:38:13 AM
3452805What will be ur reaction2/24/2013 10:17:29 AM2/24/2013 11:10:11 AM
3452811HELP ME...?!2/24/2013 10:19:12 AM2/24/2013 1:06:57 PM
3452815MISSION ACCOMPLISHED! Thank you! =D2/24/2013 10:20:15 AM2/24/2013 10:43:23 AM
3452823Do u trust radha2/24/2013 10:27:27 AM2/24/2013 10:59:52 AM
3452824favorite color2/24/2013 10:29:39 AM2/25/2013 1:22:09 AM
3452826Congratulations and Thanks2/24/2013 10:32:56 AM2/25/2013 1:01:40 AM
3452834fAVORITE IN ARTHI...2/24/2013 10:37:16 AM2/25/2013 5:02:50 AM
3452835i didnt know..2/24/2013 10:37:36 AM2/24/2013 11:33:53 AM
3452837hurry up ...1 hr left .2/24/2013 10:38:05 AM2/24/2013 11:05:13 AM
3452839Favorite in yash...2/24/2013 10:39:11 AM2/25/2013 12:34:44 AM
3452842ur favorite holiday spot...2/24/2013 10:40:52 AM2/25/2013 12:27:36 AM
3452849Will Maya bua2/24/2013 10:45:47 AM2/24/2013 11:05:04 AM
3452850Dil Se Dil Tak..- Game2/24/2013 10:46:12 AM2/25/2013 9:59:06 AM
3452857favorite arya hug2/24/2013 10:51:18 AM2/24/2013 11:19:48 AM
3452861most cruel mind in pv2/24/2013 10:53:02 AM2/24/2013 11:18:40 AM
3452887last 5 minutes...2/24/2013 11:26:36 AM2/24/2013 11:28:57 AM
3452896Nice Job dearies!!!2/24/2013 11:33:52 AM2/25/2013 1:02:20 AM
3452904Bollywood Actor/Actress2/24/2013 11:45:57 AM2/24/2013 11:34:34 PM
3452937keep voting2/24/2013 12:38:12 PM2/25/2013 12:51:02 PM
3452954..My GurBina Creations..2/24/2013 1:00:07 PM2/25/2013 5:46:46 PM
3452970AarYa Living Arrangement2/24/2013 1:30:07 PM2/25/2013 7:36:05 AM
3452974Ak-Ish Bonding2/24/2013 1:41:32 PM2/24/2013 2:43:58 PM
3452979DNA-GC-DB do an item number2/24/2013 1:56:06 PM2/25/2013 7:13:18 AM
3452984BUA'S KID2/24/2013 2:13:26 PM2/25/2013 7:35:04 AM
3453022Punar Vivah2/24/2013 3:47:47 PM2/25/2013 7:48:26 AM
3453030Precap2/24/2013 3:57:38 PM2/25/2013 7:10:27 AM
3453036Wanna chat2/24/2013 4:28:48 PM2/25/2013 12:08:53 AM
3453046TAILOR EXPERIENCE/JUST FOR LAUGHS2/24/2013 4:59:59 PM2/25/2013 3:26:50 PM
3453064do you think number of posts reduces2/24/2013 6:14:49 PM2/25/2013 7:15:39 AM
3453066Who wants to drool on the birthday boy Gurmeet?2/24/2013 6:20:33 PM2/25/2013 7:23:49 AM
3453068tears2/24/2013 6:25:24 PM2/25/2013 4:47:46 AM
3453073future of yash ki mothers2/24/2013 6:28:45 PM2/25/2013 7:44:47 AM
<< | 335 | 336 | 337 | 338 | 339 | 340 | 341 | 342 | 343 | 344 | 345 | 346 | 347 | 348 | 349 | 350 | 351 | 352 | 353 | ... >>